Vertical_Velocity
-6 -11 11 -3 -8 -5 -4 1 -3 4 -0 -22 -11 -3 7 8 11 4 -7 9 -11 -5 -13 -12 6 -5 -5 1 1 3 5 3 1 -2 -2 3 4 1 -5 3 -3 -4 4 -0
-5 0 3 -4 -2 -4 -2 -4 15 5 -2 -16 -12 1 4 24 2 -12 -11 15 -7 4 -2 -15 -3 -2 -3 -5 -0 3 -0 -2 -0 4 5 4 3 1 0 1 4 1 -4 -8
-11 11 2 -3 -0 1 -4 -8 6 -3 -3 1 -13 -19 -5 44 -11 -2 -7 3 -6 -7 -3 -5 1 6 -3 -1 -4 1 -0 0 -2 1 3 4 7 -2 0 -2 -0 2 3 3
-5 16 -6 -10 4 -6 -4 -2 -11 8 -5 -13 9 -69 25 -6 13 7 3 4 2 -0 -3 -4 -4 3 10 12 -0 -3 1 4 -4 -5 7 2 2 3 -3 2 -2 -3 3 5
17 16 -7 3 0 -6 10 -5 -2 -4 3 -26 65 -32 -9 6 -5 -3 -2 3 -2 -1 -2 -3 7 3 5 5 -4 1 2 -0 0 -1 -1 1 -4 -4 4 2 1 2 -7 2
9 -7 3 9 2 3 5 -0 -9 -3 3 -27 4 9 -19 -4 -4 -2 1 -1 3 1 -0 1 4 4 3 6 3 1 -2 0 4 -1 -4 -3 -8 -3 3 6 12 1 5 -2
-7 6 5 1 -1 -4 2 5 -8 -10 -5 -11 -7 -5 3 -9 -4 -5 -7 -1 1 -1 4 4 -2 -3 -3 1 1 3 -1 6 -4 -2 -2 -0 2 -1 -2 -3 -1 7 4 3
1 10 -10 4 -1 1 1 -2 4 -9 -6 -7 0 -22 -10 -6 -4 -3 -2 -1 -2 -5 8 6 19 22 7 -0 -1 3 -1 -2 3 1 -1 -8 -4 -5 -0 -5 -4 -1 1 3
-5 4 6 -1 2 1 4 1 3 0 1 -5 3 -1 -5 6 -1 -1 -1 -1 1 15 8 6 5 3 6 17 8 7 6 -5 -5 2 1 1 -2 -8 -5 -8 -4 2 -3 -2
9 -13 0 3 4 3 -4 0 -3 8 -12 -7 -3 -11 -3 4 -1 -3 2 3 -5 -6 -2 1 1 2 2 2 -1 -5 -11 16 19 7 -7 -9 -3 -8 -5 1 1 -3 -0 -3
5 -4 14 5 7 6 1 -3 1 -0 -5 -2 -7 -5 -0 -4 -1 -1 6 -7 -5 -8 -8 -2 -4 -0 -7 -6 -0 2 1 -0 2 -4 -3 -5 -5 -6 -1 -1 1 1 1 0
3 -11 -1 -2 -1 4 2 -1 3 0 -3 2 -0 -7 -2 -4 -4 2 3 3 -1 -3 0 -2 1 4 0 -1 -7 -2 -6 -3 -3 -6 1 2 -2 -0 -1 -2 -1 -0 2 -1
8 -1 -5 -2 -3 3 -1 2 0 -3 -0 3 -10 3 2 -4 3 4 0 1 3 2 -2 -2 -2 1 -1 -4 -2 2 0 -1 -0 1 -5 -3 3 1 -5 -5 -3 -2 -3 -2
8 1 3 -3 -0 -2 -9 3 1 -0 -8 4 5 2 1 -2 -4 -2 0 -1 -2 -4 -2 -3 -3 -3 -4 -1 -2 -2 -6 -7 -5 -6 5 1 -6 -8 -2 -4 -4 -8 -3 -1
4 -3 2 2 2 0 -5 1 2 -9 9 -17 13 -6 2 0 2 1 -1 -2 -2 -1 -0 2 0 -2 0 -2 1 -2 -0 4 1 -1 -6 -7 -9 -8 -6 -4 -4 -3 -1 -3
0 -3 3 -1 7 0 -10 0 6 -1 2 -7 -5 -2 -1 4 1 2 0 -1 -1 -1 -1 -0 2 2 2 3 0 -2 0 -2 -2 -3 -4 -7 -6 -2 1 -2 -3 -3 -0 -4
-6 1 4 -14 4 -0 -21 8 1 -2 -2 1 -2 0 0 -1 -0 2 3 3 3 2 3 2 -1 -3 -3 -1 -2 -2 -0 -1 -4 -4 -3 -1 -1 -5 -3 -1 -9 -0 -0 -2
-2 3 5 -6 1 -16 7 4 0 -4 -1 1 -4 -2 -1 1 2 -0 -2 -2 1 -2 -5 -5 -4 -4 -4 -5 -5 -4 -3 -1 -0 1 0 -4 -1 -1 -1 -0 3 -2 -0 3
5 1 -4 -8 1 -6 4 5 -4 -1 2 0 1 -4 -0 -0 0 3 -1 2 1 1 -1 -1 -2 -3 -3 -3 -3 -2 0 2 3 1 1 7 8 6 3 2 5 5 3 3
3 1 -0 1 -4 -7 11 -2 -2 -3 9 -5 2 1 -1 -0 -0 -3 -0 0 -0 0 2 2 2 1 0 2 3 4 3 3 2 5 8 2 -4 -3 0 1 -2 -2 -0 3
3 -0 -4 -3 -7 -1 4 -2 -4 -2 -1 1 -1 -0 -0 1 -2 -1 1 1 1 2 1 1 2 3 3 3 3 3 5 8 9 5 -1 -1 -1 1 1 4 -0 1 -0 -1
7 -0 2 -3 -2 -3 -0 -0 2 -3 -4 -4 -2 -1 0 4 -2 -2 -0 -0 2 -2 2 2 3 4 3 4 5 4 14 7 -2 3 3 1 1 2 4 3 -0 2 3 1
-5 -1 1 -2 2 0 2 0 -1 -3 -3 -3 -4 -5 -4 -1 -1 -2 -1 -1 -1 0 1 2 4 5 5 4 7 15 4 -2 1 3 3 2 0 0 0 0 -1 -1 -1 -1
2 1 -0 -3 2 1 -0 -1 -0 0 -0 -1 1 -2 -1 -2 -3 -1 -1 1 -1 -1 1 3 4 3 3 5 10 1 -1 -1 2 4 2 0 1 1 1 -0 1 1 1 1
2 -2 1 1 -0 -0 -0 0 -1 -1 -1 0 -2 -1 -1 -2 -1 -0 -0 -2 -1 0 2 3 2 1 3 7 -2 3 2 1 2 2 0 -0 -2 -2 -1 -2 -2 -3 -3 -3
0 3 -0 -1 1 0 -1 -1 -1 -1 -1 -3 -2 -0 1 -1 -2 0 -1 -1 -1 1 1 2 -1 2 1 1 2 4 2 2 3 2 1 2 1 1 1 0 -1 -2 -2 -3
Height
5736 5736 5736 5734 5731 5729 5729 5727 5726 5725 5723 5723 5725 5729 5726 5723 5718 5715 5712 5706 5703 5703 5703 5705 5705 5704 5705 5704 5705 5705 5706 5708 5710 5713 5716 5716 5714 5713 5714 5714 5716 5717 5715 5721
5725 5721 5723 5723 5721 5719 5717 5718 5715 5713 5711 5710 5712 5717 5717 5710 5702 5695 5694 5691 5689 5687 5687 5687 5686 5683 5683 5683 5685 5686 5688 5691 5695 5699 5698 5698 5698 5699 5699 5702 5702 5702 5703 5706
5712 5711 5711 5711 5708 5706 5708 5705 5707 5701 5699 5700 5697 5702 5706 5698 5685 5679 5678 5675 5671 5670 5670 5670 5668 5667 5667 5667 5669 5671 5672 5675 5679 5682 5682 5681 5682 5683 5684 5686 5689 5689 5688 5689
5700 5703 5700 5697 5696 5697 5693 5694 5693 5691 5684 5687 5681 5679 5691 5680 5673 5668 5665 5661 5659 5657 5657 5657 5656 5656 5655 5654 5654 5656 5657 5660 5662 5664 5665 5665 5666 5669 5671 5674 5675 5677 5676 5675
5691 5690 5688 5686 5687 5682 5681 5679 5678 5677 5673 5672 5673 5663 5678 5663 5661 5657 5654 5650 5649 5648 5645 5645 5644 5643 5642 5643 5644 5644 5647 5646 5649 5650 5652 5654 5655 5656 5657 5658 5663 5665 5665 5664
5679 5676 5675 5674 5673 5675 5671 5668 5666 5664 5660 5659 5666 5649 5656 5655 5649 5646 5643 5641 5638 5636 5635 5634 5633 5630 5630 5632 5633 5634 5636 5637 5638 5640 5641 5643 5647 5646 5646 5645 5647 5650 5653 5653
5668 5668 5666 5664 5661 5661 5659 5657 5655 5653 5651 5650 5649 5645 5642 5645 5640 5636 5634 5631 5629 5626 5625 5624 5624 5621 5621 5622 5623 5624 5625 5628 5630 5630 5632 5633 5635 5636 5637 5638 5638 5638 5639 5640
5660 5662 5658 5657 5653 5653 5651 5649 5647 5643 5642 5643 5641 5638 5638 5636 5633 5630 5627 5624 5622 5617 5617 5618 5616 5614 5614 5614 5614 5614 5614 5616 5618 5620 5623 5625 5625 5625 5626 5626 5628 5627 5627 5627
5649 5649 5650 5649 5646 5645 5644 5642 5640 5638 5637 5632 5634 5631 5629 5626 5626 5624 5621 5619 5616 5613 5611 5609 5607 5607 5605 5606 5606 5605 5605 5605 5607 5610 5612 5612 5613 5614 5615 5614 5613 5612 5612 5613
5638 5637 5637 5638 5639 5638 5637 5634 5633 5631 5629 5625 5624 5621 5618 5618 5615 5615 5614 5612 5609 5608 5605 5602 5601 5600 5598 5596 5596 5597 5596 5594 5598 5601 5603 5604 5602 5601 5599 5597 5596 5595 5596 5597
5626 5628 5630 5628 5630 5630 5628 5627 5626 5624 5623 5618 5615 5614 5611 5608 5606 5606 5604 5602 5600 5599 5597 5595 5594 5590 5590 5592 5591 5588 5587 5590 5591 5592 5592 5592 5589 5586 5584 5582 5581 5581 5581 5582
5618 5618 5617 5619 5618 5620 5620 5619 5617 5614 5614 5610 5606 5604 5601 5599 5597 5595 5592 5593 5593 5592 5590 5588 5585 5585 5585 5584 5583 5582 5585 5585 5584 5583 5580 5577 5577 5576 5574 5572 5570 5569 5568 5568
5612 5608 5607 5608 5609 5610 5611 5611 5609 5606 5604 5601 5599 5595 5593 5588 5585 5584 5584 5584 5585 5583 5580 5578 5577 5577 5576 5575 5574 5572 5573 5572 5571 5569 5568 5567 5566 5564 5562 5560 5558 5556 5554 5554
5600 5600 5600 5601 5603 5602 5602 5601 5598 5597 5594 5592 5586 5585 5584 5579 5578 5577 5575 5572 5570 5570 5569 5567 5566 5565 5564 5563 5562 5561 5562 5561 5558 5560 5558 5555 5553 5552 5549 5545 5542 5539 5538 5536
5590 5590 5592 5593 5593 5593 5593 5590 5589 5588 5586 5580 5578 5574 5573 5573 5570 5568 5565 5562 5560 5559 5557 5555 5554 5553 5552 5553 5553 5554 5554 5552 5550 5546 5543 5545 5543 5540 5536 5530 5526 5523 5522 5520
5581 5581 5582 5583 5584 5583 5581 5581 5581 5578 5575 5569 5567 5565 5566 5564 5562 5559 5556 5553 5551 5549 5548 5547 5546 5544 5542 5540 5541 5543 5539 5538 5537 5538 5538 5535 5531 5527 5525 5523 5520 5517 5516 5515
5571 5572 5574 5574 5574 5573 5572 5573 5571 5568 5562 5560 5558 5558 5556 5554 5552 5550 5547 5545 5542 5540 5537 5536 5535 5534 5533 5533 5533 5533 5533 5533 5533 5532 5529 5527 5525 5522 5520 5518 5514 5512 5510 5507
5563 5565 5566 5565 5565 5563 5564 5562 5561 5557 5554 5551 5549 5548 5547 5544 5542 5540 5539 5536 5534 5532 5530 5528 5527 5526 5525 5526 5527 5528 5528 5528 5527 5527 5527 5524 5522 5519 5517 5515 5511 5507 5506 5502
5555 5557 5557 5557 5556 5555 5553 5554 5550 5547 5546 5546 5542 5540 5538 5536 5533 5531 5527 5526 5524 5522 5518 5517 5515 5515 5516 5517 5518 5519 5521 5523 5524 5524 5524 5523 5520 5517 5515 5512 5508 5506 5502 5498
5547 5548 5549 5548 5547 5544 5545 5544 5540 5537 5539 5535 5534 5532 5529 5528 5525 5523 5521 5519 5517 5515 5513 5510 5509 5510 5510 5512 5514 5516 5517 5519 5520 5521 5522 5520 5518 5515 5513 5510 5506 5504 5500 5497
5538 5539 5539 5539 5537 5536 5538 5535 5533 5532 5534 5528 5526 5524 5522 5520 5518 5517 5514 5512 5511 5510 5509 5507 5505 5506 5508 5509 5511 5513 5516 5518 5518 5518 5518 5519 5519 5516 5514 5512 5509 5507 5503 5499
5531 5531 5531 5531 5530 5530 5529 5528 5527 5525 5522 5520 5519 5518 5516 5514 5512 5510 5508 5507 5505 5505 5504 5504 5504 5505 5506 5507 5509 5512 5515 5515 5515 5518 5520 5520 5519 5517 5514 5512 5511 5508 5504 5502
5522 5523 5525 5524 5524 5523 5522 5521 5520 5519 5517 5515 5514 5512 5509 5507 5505 5504 5503 5503 5502 5502 5502 5502 5503 5504 5505 5506 5509 5513 5513 5514 5516 5518 5520 5519 5517 5516 5513 5512 5510 5508 5506 5504
5514 5515 5516 5516 5517 5516 5515 5515 5515 5514 5513 5511 5509 5507 5505 5502 5501 5499 5499 5499 5500 5500 5501 5502 5503 5504 5505 5509 5512 5512 5514 5515 5516 5519 5519 5518 5516 5514 5512 5511 5509 5508 5506 5503
5507 5507 5510 5510 5510 5511 5510 5511 5510 5509 5508 5507 5505 5503 5501 5499 5498 5498 5498 5499 5499 5500 5501 5502 5503 5505 5508 5511 5513 5515 5515 5516 5517 5518 5518 5516 5514 5512 5510 5508 5507 5505 5504 5502
5501 5503 5504 5505 5506 5506 5506 5506 5505 5504 5504 5503 5501 5500 5499 5499 5498 5498 5498 5498 5500 5501 5502 5504 5505 5508 5511 5513 5514 5514 5515 5516 5517 5517 5516 5513 5511 5509 5507 5505 5503 5501 5498 5496